www.pogodaiklimat.ru

Погода и климат >> Архив погоды >> Россия >> Чукотка >> Бухта Амбарчик


ПОГОДА в Бухте Амбарчик

  • Прогноз погоды в Бухте Амбарчик
  • Монитор погоды в Бухте Амбарчик
  • Климат города

АРХИВ ПОГОДЫ в Бухте Амбарчик

Время (UTC), дата Ветер
(напр.,м/с)
 
Видим.   Явления Облачность Т
(С)
Тd
(С)
f
(%)
Тe
(С)
Тes
(С)
Комфортность P
(гПа)
Po
(гПа)
Тmin
(С)
Tmax
(С)
R
(мм)
R24
(мм)
S
(см)
00 11.11 В 8-10
{10}
20 км позёмок {метель} 10/8 300 м
[Sc Ac und]
-14.1 -15.8 87 -25 -25 1009.6 1006.5
03 11.11 В 8-11
{13}
1000 м ливневой снег {метель} 10/8 300 м
[Cb cap Ac und]
-13.0 -14.3 90 -23 -23 1006.4 1003.3
06 11.11 ЮВ 8-11
{14}
1000 м ливневой снег {метель} 10/8 300 м
[Cb cap Ac und]
-14.2 -15.9 87 -25 -25 1004.8 1001.7
09 11.11 ЮВ 2
{11}
20 км {ливн. осадки, метель} 9/5 300 м
[Cb cap Ac trans]
-16.0 -17.9 85 -21 -21 1004.6 1001.5 -12.9 0.7
12 11.11 З 4
{4}
4000 м слабый ливневой снег {метель} 9/9 300 м
[Cb cap]
-12.4 -13.9 89 -20 -20 1004.3 1001.3
15 11.11 ЮЗ 9-10
{10}
4000 м слабый ливневой снег {метель} 10/9 300 м
[Cb cap Ac und]
-15.3 -17.0 87 -27 -27 1005.0 1001.9
18 11.11 З 10-11
{12}
4000 м слабый ливневой снег {метель} 10/8 300 м
[Cb cap Ac und]
-15.0 -16.7 87 -27 -27 1006.7 1003.6
21 11.11 ЮЗ 11-13
{14}
4000 м метель {ливн. осадки} 10/10 300 м
[Sc]
-14.7 -16.3 88 -27 -27 1009.7 1006.6 -16.2 0.4 23
00 12.11 ЮЗ 13-15
{16}
1000 м метель {ливн. осадки} 10/8 300 м
[Sc Ac und]
-14.6 -16.0 89 -28 -28 1014.5 1011.4
03 12.11 З 14-17
{17}
1000 м метель 10/8 300 м
[Sc Ac und]
-15.6 -17.1 88 -29 -29 1018.1 1015.0
06 12.11 ЮЗ 15-18
{18}
500 м сильная метель 10/8 300 м
[Sc Ac und]
-16.4 -18.1 87 -31 -31 опасность
обморожения
1021.4 1018.3
09 12.11 ЮЗ 13-16
{18}
1000 м метель 10/8 300 м
[Sc Ac und]
-17.1 -18.9 86 -31 -31 опасность
обморожения
1025.8 1022.7 -14.5
12 12.11 ЮЗ 12-15
{17}
1000 м метель 9/6 300 м
[Sc Ac trans]
-18.0 -19.9 85 -32 -32 опасность
обморожения
1028.5 1025.3
15 12.11 ЮЗ 12-15
{15}
1000 м метель 10/6 300 м
[Sc Ac und]
-17.8 -19.7 85 -32 -32 опасность
обморожения
1029.1 1025.9
18 12.11 ЮЗ 10-12
{14}
20 км позёмок {метель} 10/6 300 м
[Sc Ac und]
-18.0 -20.2 83 -31 -31 опасность
обморожения
1030.5 1027.3
21 12.11 ЮЗ 7
{12}
20 км позёмок {метель} 9/5 300 м
[Sc Ac trans]
-18.7 -20.9 83 -30 -30 1031.5 1028.3 -18.7 23
00 13.11 З 3
{8}
20 км {метель} 8/4 300 м
[Sc Ac trans Ci fib]
-20.8 -23.4 80 -29 -29 1031.6 1028.4 -21.4
03 13.11 В 1
{4}
20 км 9/6 300 м
[Sc Ac trans Ci fib]
-19.9 -22.2 82 -23 -23 1031.0 1027.8
06 13.11 ЮВ 3
{4}
20 км 9/8 300 м
[Sc Ac trans]
-19.5 -21.5 84 -27 -27 1030.0 1026.8
09 13.11 ЮВ 4
{5}
4000 м слабый ливневой снег 9/8 300 м
[Cb cap Ac und]
-17.5 -19.3 86 -26 -26 1028.3 1025.1 -17.3 0.0
12 13.11 ЮВ 3
{11}
20 км {ливн. осадки, метель} 9/5 300 м
[Sc Ac trans]
-16.3 -18.3 84 -23 -23 1026.2 1023.1
15 13.11 В 8
{14}
20 км позёмок {метель} 9/8 300 м
[Sc Ac trans]
-12.5 -14.2 87 -23 -23 1023.9 1020.8
18 13.11 В 11-15
{16}
20 км метель 10/6 300 м
[Sc Ac und]
-12.0 -13.3 90 -23 -23 1021.1 1018.0
21 13.11 В 12-15
{17}
2000 м метель 10/10 300 м
[Sc]
-11.1 -12.8 87 -23 -23 1019.4 1016.3 -17.5 0.0 26
00 14.11 В 7-10
{15}
1000 м ливневой снег {метель} 10/10 300 м
[Cb cap]
-10.5 -11.7 91 -20 -20 1016.4 1013.3
03 14.11 ЮВ 4
{12}
4000 м слабый ливневой снег {метель} 10/8 300 м
[Cb cap Ac und]
-11.8 -13.3 89 -19 -19 1013.2 1010.1
06 14.11 ЮВ 4
{6}
20 км {ливн. осадки, метель} 10/6 600 м
[Sc Ac und]
-10.1 -12.4 83 -17 -17 1010.0 1006.9
09 14.11 В 6
{8}
4000 м слабый ливневой снег {метель} 10/10 300 м
[Cb cap]
-9.1 -11.2 85 -18 -18 1007.8 1004.8 -9.1 0.8
12 14.11 В 4
{9}
20 км {ливн. осадки, метель} 9/9 300 м
[Sc]
-10.1 -11.5 89 -17 -17 1006.1 1003.1
15 14.11 В 4
{6}
20 км 10/10 300 м
[Sc]
-9.3 -10.5 91 -16 -16 1003.9 1000.9
18 14.11 В 4
{7}
4000 м слабый ливневой снег 10/10 300 м
[Cb cap]
-8.3 -9.2 93 -15 -15 1001.6 998.6
21 14.11 В 3
{6}
4000 м слабый ливневой снег 10/10 300 м
[Cb cap]
-5.8 -6.5 95 -12 -12 999.8 996.8 -10.8 0.2 28
00 15.11 ЮЗ 2
{6}
4000 м слабый ливневой снег {метель} 10/6 300 м
[Cb cap Ac und]
-5.9 -6.5 96 -10 -10 997.7 994.7
03 15.11 ЮЗ 14-16
{16}
2000 м слабый ливневой снег {метель} 10/10 300 м
[Cb cap]
-9.7 -10.9 91 -22 -22 996.6 993.6
06 15.11 ЮЗ 18-21
{22}
50 м сильная метель {ливн. осадки} ?/? -11.8 -13.1 90 -26 -26 997.3 994.3
09 15.11 ЮЗ 21-24
{26}
<100 м сильная метель ?/? -13.7 -15.2 88 -29 -29 997.7 994.7 -5.8 1
12 15.11 ЮЗ 21-26
{27}
50 м сильная метель ?/? -13.4 -14.9 88 -29 -29 999.3 996.2
15 15.11 ЮЗ 20-24
{27}
50 м сильная метель ?/? -13.0 -14.5 88 -28 -28 1001.4 998.3
18 15.11 ЮЗ 16-20
{24}
50 м сильная метель ?/? -13.2 -14.6 89 -27 -27 1003.8 1000.7
21 15.11 ЮЗ 16-20
{22}
200 м сильная метель ?/? -13.6 -15.1 88 -27 -27 1005.1 1002.0 -13.7 0.9 29
00 16.11 ЮЗ 16-19
{21}
200 м сильная метель ?/? -15.2 -16.9 87 -30 -30 1005.7 1002.6 -15.2
03 16.11 ЮЗ 15-17
{19}
500 м сильная метель ?/? -16.2 -18.0 86 -31 -31 опасность
обморожения
1006.1 1003.0
06 16.11 ЮЗ 12-15
{18}
1000 м метель 6/0
[Ci fib]
-16.5 -18.4 85 -30 -30 1006.1 1003.0
09 16.11 ЮЗ 9-11
{16}
20 км позёмок {метель} 8/0
[Ac trans Ci fib]
-16.3 -18.4 84 -28 -28 1007.4 1004.3 -13.6 0.2
12 16.11 З 8-10
{11}
20 км позёмок {метель} 10/0
[Ac und]
-15.7 -17.8 84 -27 -27 1008.3 1005.2
15 16.11 ЮЗ 11-13
{14}
4000 м метель 10/0
[Ac und]
-15.5 -17.5 85 -28 -28 1009.7 1006.6
18 16.11 ЮЗ 14-16
{18}
4000 м метель 10/0
[Ac und]
-16.3 -18.4 84 -30 -30 1011.3 1008.2
21 16.11 ЮЗ 13-15
{18}
4000 м метель 10/0
[Ac und]
-16.0 -18.1 84 -30 -30 1013.7 1010.6 -17.5 29
00 17.11 ЮЗ 13-15
{16}
2000 м метель 10/0
[Ac und]
-16.1 -18.3 83 -30 -30 1016.2 1013.1
03 17.11 ЮЗ 12-14
{15}
2000 м метель 8/3 300 м
[Sc Ac trans Ci fib]
-17.3 -20.0 79 -31 -31 опасность
обморожения
1017.4 1014.3
06 17.11 З 5
{14}
20 км {метель} 6/3 300 м
[Sc Ac trans]
-19.0 -21.9 78 -29 -29 1018.2 1015.0
09 17.11 З 2
{6}
20 км 6/3 300 м
[Sc Ac trans]
-19.0 -22.1 76 -25 -25 1019.1 1015.9 -15.3
12 17.11 Ю 3
{5}
20 км 6/3 300 м
[Sc Ac trans]
-17.0 -20.4 75 -24 -24 1019.5 1016.4
15 17.11 ЮВ 3
{5}
20 км 3/3 300 м
[Sc]
-16.6 -19.7 77 -24 -24 1018.7 1015.6
18 17.11 ЮВ 4
{6}
20 км 4/3 600 м
[Sc Ac trans]
-16.0 -19.3 76 -24 -24 1016.5 1013.4

 

Местоположение метеостанции Бухта Амбарчик (Чукотка, Россия): широта 69.62 долгота 162.30 высота над уровнем моря 23 м.

В архиве по умолчанию представлена погода в Бухте Амбарчик за последнюю неделю. Архивные данные за месяц целиком и за предыдущие месяцы, начиная с января 2011 года, Вы можете получить, выбрав интересующий диапазон дат из раскрывающегося списка и нажав кнопку "Ввод!".

Внимание! Время в таблицах - всемирное. Для получения местного времени необходимо прибавить поправку, которая в Бухте Амбарчик равна 12 ч.

Смотрите также архив погоды в соседних городах и на ближайших метеорологических станциях:

Погода в Черском (Якутия, Россия) (107 км)
Погода в Анюйске (Чукотка, Россия) (145 км)
Погода в Раучуе (Чукотка, Россия) (164 км)
Погода в Константиновской (Чукотка, Россия) (170 км)
Погода в Колымской (Якутия, Россия) (177 км)
Погода на Островном (Чукотка, Россия) (182 км)
Погода на Айон Острове (Чукотка, Россия) (218 км)
Погода в Билибино (Чукотка, Россия) (240 км)
Погода в Певеке (Чукотка, Россия) (305 км)
Погода в Андрюшкино (Якутия, Россия) (309 км)

Пояснения к столбцам:

Ветер - указаны скорость ветра в м/с - средняя за 10 мин, порывы в срок и между сроками (в фигурных скобках) и направление, откуда дует ветер: С - северный, СВ - северо-восточный, В - восточный, ЮВ - юго-восточный, Ю - южный, ЮЗ - юго-западный, З - западный, СЗ - северо-западный.
Видимость - горизонтальная дальность видимости в метрах или километрах. При видимости от 1 до 10 км при отсутствии осадков обычно наблюдается дымка, при ухудшении видимости до 1 км и менее - туман. В сухую погоду видимость может ухудшаться дымом, пылью или мглою.
Явления - указаны атмосферные явления, наблюдавшиеся в срок или в последний час перед сроком; фигурными скобками обозначены явления, наблюдавшиеся между сроками (за 1-3 часа до срока); квадратными скобками обозначены град или гололедные отложения с указанием их диаметра в мм.
Облачность - указаны через наклонную черту общая и нижняя облачность в баллах и высота нижней границы облаков в метрах; квадратными скобками обозначены формы облаков: Ci - перистые, Cs - перисто-слоистые, Cc - перисто-кучевые, Ac - высококучевые, As - высокослоистые, Sc - слоисто-кучевые, Ns - слоисто-дождевые, Cu - кучевые, Cb - кучево-дождевые. Подробнее классификацию облаков см. в Атласе облаков (PDF).
T - Температура воздуха - температура, измеренная на высоте 2 м над землей.
Td - Температура точки росы - температура, при понижении до которой содержащийся в воздухе водяной пар достигнет насыщения.
f - Относительная влажность воздуха - влажноcть воздуха, измеренная на высоте 2 м над землей.
Te - Эффективная температура - температура, которую ощущает одетый по сезону человек в тени. Характеристика душности погоды. При расчете учитывается влияние влажности воздуха и скорости ветра на теплоощущения человека.
Tes - Эффективная температура на солнце - температура, которую ощущает человек, с поправкой на солнечный нагрев. Характеристика знойности погоды. Зависит от высоты солнца над горизонтом, облачности и скорости ветра. Ночью, в пасмурную погоду, а также при ветре 12 м/с и более поправка равна нулю.
P - Атмосферное давление - приведенное к уровню моря атмосферное давление.
Po - Атмосферное давление - измеренное на уровне метеостанции атмосферное давление.
Tmin - Минимальная температура - минимум температуры воздуха на высоте 2 м над землей.
Tmax - Максимальная температура - максимум температуры воздуха на высоте 2 м над землей.
R - Количество осадков - Количество выпавших осадков за период времени, мм. При наведении курсора мыши на число - период времени, за который выпало указанное количество осадков.
R24 - Количество осадков - Количество выпавших осадков за 24 часа, мм.
S - Снежный покров - Высота снежного покрова, см. При наведении курсора мыши на число - состояние снежного покрова и степень покрытия местности в баллах.